Regional Weather Roundup
Issued by NWS

Home | Current Version | Previous Version | Text Only | Print | Product List | Glossary On
Versions: 1 2 3 4 5 6 7 8 9 10 11 12 13 14 15 16 17 18 19 20 21 22 23 24 25 26 27 28 29 30 31 32 33 34 35 36 37 38 39 40 41 42 43 44 45 46 47 48 49 50
354
ASUS46 KSEW 200610
RWRWA

WASHINGTON REGIONAL WEATHER ROUNDUP
NATIONAL WEATHER SERVICE SEATTLE WA
1000 PM PST MON FEB 19 2018

NOTE:"FAIR" INDICATES FEW OR NO CLOUDS BELOW 12,000 FEET WITH NO
SIGNIFICANT WEATHER AND/OR OBSTRUCTIONS TO VISIBILITY.

WAZ507-509-555>559-200700-
SEATTLE, TACOMA, EVERETT, AND VICINITY

CITY           SKY/WX    TMP DP  RH WIND       PRES   REMARKS
EVERETT        MOCLDY    30  11  45 CALM      30.20S
6HR MIN TEMP:  29; 6HR MAX TEMP:  34;

BOEING FIELD   MOCLDY    29  18  63 SE7       30.24S
6HR MIN TEMP:  28; 6HR MAX TEMP:  36;

RENTON         MOCLDY    31  19  61 SE6       30.24S
6HR MIN TEMP:  30; 6HR MAX TEMP:  37;

SEATAC AIRPORT MOCLDY    30  16  56 SE9       30.21S
6HR MIN TEMP:  29; 6HR MAX TEMP:  36;

JBLM-MCCHORD   MOCLDY    26  22  85 S3        30.23R
6HR MIN TEMP:  26; 6HR MAX TEMP:  37;

PUYALLUP       CLOUDY    28  21  74 CALM      30.22S
BREMERTON      MOCLDY    22  20  92 CALM      30.21F
6HR MIN TEMP:  22; 6HR MAX TEMP:  35;

JBLM-FT LEWIS  MOCLDY    27  23  87 SE6       30.22S
6HR MIN TEMP:  26; 6HR MAX TEMP:  37;

TACOMA NARROWS MOCLDY    31  15  52 CALM      30.22S
6HR MIN TEMP:  31; 6HR MAX TEMP:  36;

$$

WAZ001-503-506-510-514-515-200700-
NORTH INTERIOR

CITY           SKY/WX    TMP DP  RH WIND       PRES   REMARKS
BELLINGHAM     MOCLDY    26  14  60 N3        30.21S
6HR MIN TEMP:  26; 6HR MAX TEMP:  36;

FRIDAY HARBOR  MOCLDY    25  14  63 CALM      30.22F
6HR MIN TEMP:  25; 6HR MAX TEMP:  33;

EASTSOUND      MOCLDY    30  16  55 CALM      30.21S
PORT ANGELES   CLOUDY    27  20  75 SW3       30.19F
6HR MIN TEMP:  25; 6HR MAX TEMP:  34;

EDIZ HOOK      FAIR      32  23  71 SE7       30.21F
6HR MIN TEMP:  31; 6HR MAX TEMP:  34;

PORT TOWNSEND  MOCLDY    25  21  86 CALM      30.23S
NAS WHIDBEY    MOCLDY    30  15  53 E5        30.26S
6HR MIN TEMP:  29; 6HR MAX TEMP:  38;

ARLINGTON      MOCLDY    23  19  85 CALM      30.23F
6HR MIN TEMP:  22; 6HR MAX TEMP:  33;

BURLINGTON     PTCLDY    28  19  69 CALM      30.22S
$$

WAZ020-022-039-040-504-511-512-200700-
SOUTHWEST INTERIOR

CITY           SKY/WX    TMP DP  RH WIND       PRES   REMARKS
SHELTON        CLOUDY    31  18  58 N3        30.20S
6HR MIN TEMP:  31; 6HR MAX TEMP:  38;

OLYMPIA        CLOUDY    29  21  72 SE3       30.23S
6HR MIN TEMP:  26; 6HR MAX TEMP:  38;

CHEHALIS       FAIR      28  25  86 S5        30.24S
KELSO          MOCLDY    30  27  88 CALM      30.26S
6HR MIN TEMP:  30; 6HR MAX TEMP:  39;

VANCOUVER      MOCLDY    31  26  82 CALM      30.26R
6HR MIN TEMP:  28; 6HR MAX TEMP:  40;

SCAPPOOSE, OR  CLOUDY    30  26  85 CALM      30.25S
6HR MIN TEMP:  27; 6HR MAX TEMP:  39;

PORTLAND, OR   MOCLDY    31  26  82 E7        30.27R
6HR MIN TEMP:  31; 6HR MAX TEMP:  40;

$$

WAZ021-516-517-200700-
WASHINGTON COAST

CITY           SKY/WX    TMP DP  RH WIND       PRES   REMARKS
FORKS          MOCLDY    29  21  72 E5        30.18S
6HR MIN TEMP:  29; 6HR MAX TEMP:  39;

HOQUIAM        MOCLDY    31  27  85 NE5       30.21S
6HR MIN TEMP:  30; 6HR MAX TEMP:  39;

ASTORIA, OR    MOCLDY    30  25  81 CALM      30.23R
6HR MIN TEMP:  30; 6HR MAX TEMP:  39;

$$

WAZ019-023-024-040-567>569-200700-
CASCADE MOUNTAINS AND COLUMBIA GORGE

CITY           SKY/WX    TMP DP  RH WIND       PRES   REMARKS
STAMPEDE PASS  NOT AVBL
TROUTDALE, OR  MOCLDY    31  27  85 E6        30.27R
6HR MIN TEMP:  28; 6HR MAX TEMP:  39;

HOOD RIVER, OR MOCLDY    27  23  86 CALM      30.24R
THE DALLES, OR PTCLDY    24  16  71 SW6       30.26R
6HR MIN TEMP:  24; 6HR MAX TEMP:  34;

$$

WAZ026-027-041>044-520-521-200700-
EAST SLOPES

CITY           SKY/WX    TMP DP  RH WIND       PRES   REMARKS
OMAK           CLEAR     14   5  67 NW10      30.20R WCI   1
6HR MIN TEMP:  14; 6HR MAX TEMP:  27;

WENATCHEE      CLEAR     23   6  48 E6        30.18R
6HR MIN TEMP:  23; 6HR MAX TEMP:  31;

ELLENSBURG     CLOUDY    24  12  60 SW7       30.12R
6HR MIN TEMP:  22; 6HR MAX TEMP:  34;

YAKIMA         PTCLDY   N/A N/A N/A W8        30.19R
SUNNYSIDE ARPT PTCLDY    20  12  71 E6        30.20S
6HR MIN TEMP:  20; 6HR MAX TEMP:  32;

YAKIMA TC      FAIR      18   8  64 N3        30.15R
6HR MIN TEMP:  16; 6HR MAX TEMP:  30;

$$

WAZ028-034-035-200700-
COLUMBIA BASIN

CITY           SKY/WX    TMP DP  RH WIND       PRES   REMARKS
EPHRATA        CLOUDY    24   6  46 NW9       30.17R
6HR MIN TEMP:  20; 6HR MAX TEMP:  30;

MOSES LAKE     CLOUDY    23  14  68 N5        30.18S
6HR MIN TEMP:  23; 6HR MAX TEMP:  30;

PASCO          CLOUDY    25  11  55 SW8       30.25R
6HR MIN TEMP:  24; 6HR MAX TEMP:  34;

RICHLAND ARPT  CLOUDY    27  13  55 CALM      30.25R
6HR MIN TEMP:  26; 6HR MAX TEMP:  34;

HERMISTON, OR  CLEAR     17  10  74 S9        30.23R
6HR MIN TEMP:  16; 6HR MAX TEMP:  29;

$$

WAZ036>038-200700-
NORTHEAST WASHINGTON

CITY           SKY/WX    TMP DP  RH WIND       PRES   REMARKS
SPOKANE GEIGER PTCLDY     9  -1  64 SW3       30.09S
6HR MIN TEMP:   9; 6HR MAX TEMP:  20;

SPOKANE FELTS  PTCLDY    11   5  77 CALM      30.14R
6HR MIN TEMP:  10; 6HR MAX TEMP:  23;

FAIRCHILD AFB  CLEAR      9  -3  58 SW5       30.08R
6HR MIN TEMP:   5; 6HR MAX TEMP:  18;

COEURDALENE,ID CLEAR     -7 -11  83 CALM      30.11R
6HR MIN TEMP:  -7; 6HR MAX TEMP:  19;

DEER PARK      PTCLDY     1  -3  83 CALM      30.11R
6HR MIN TEMP:  -2; 6HR MAX TEMP:  21;

$$

WAZ029>033-200700-
SOUTHEAST WASHINGTON

CITY           SKY/WX    TMP DP  RH WIND       PRES   REMARKS
PULLMAN        CLEAR     -3  -8  79 CALM      30.11R
6HR MIN TEMP:  -4; 6HR MAX TEMP:  15;

LEWISTON, ID   CLEAR     18   8  65 CALM      30.19R
6HR MIN TEMP:  18; 6HR MAX TEMP:  23;

WALLA WALLA    PTCLDY    22  10  60 S6        30.20R
6HR MIN TEMP:  21; 6HR MAX TEMP:  27;

PENDLETON, OR  CLEAR     13   5  70 S9        30.18R
6HR MIN TEMP:  13; 6HR MAX TEMP:  24;

$$




USA.gov is the U.S. government's official web portal to all federal, state and local government web resources and services.